Precipitable_Water
1.16 1.15 1.17 1.15 1.12 1.04 0.96 0.97 0.99 0.99 1.05 1.05 1.04 1.02 0.99 0.98 0.98 1.02 1.13 1.09 1.06 1.12 1.16 1.26 1.22 1.30 1.35 1.39 1.37 1.34 1.30 1.25
1.08 1.07 1.05 1.00 0.95 0.86 0.76 0.73 0.83 0.87 0.87 0.85 0.82 0.79 0.76 0.74 0.72 0.72 0.74 0.76 0.77 0.79 0.86 0.93 0.99 1.09 1.20 1.26 1.27 1.33 1.33 1.31
0.98 0.95 0.89 0.84 0.78 0.71 0.61 0.51 0.50 0.56 0.60 0.55 0.49 0.49 0.51 0.51 0.55 0.54 0.53 0.52 0.52 0.53 0.52 0.49 0.55 0.65 0.72 0.80 0.94 1.10 1.21 1.26
0.87 0.82 0.75 0.70 0.62 0.57 0.52 0.48 0.45 0.45 0.47 0.46 0.44 0.43 0.45 0.45 0.47 0.46 0.45 0.44 0.42 0.43 0.43 0.42 0.42 0.44 0.47 0.50 0.52 0.62 0.75 0.98
0.79 0.76 0.69 0.59 0.53 0.53 0.51 0.50 0.48 0.48 0.47 0.46 0.43 0.42 0.43 0.44 0.43 0.41 0.41 0.41 0.41 0.42 0.41 0.41 0.40 0.40 0.39 0.40 0.41 0.42 0.44 0.54
0.74 0.69 0.60 0.54 0.51 0.50 0.49 0.48 0.49 0.49 0.50 0.47 0.42 0.41 0.42 0.42 0.41 0.40 0.40 0.42 0.41 0.42 0.42 0.42 0.40 0.38 0.37 0.35 0.36 0.36 0.36 0.37
0.67 0.63 0.55 0.51 0.49 0.49 0.49 0.49 0.50 0.52 0.51 0.47 0.42 0.41 0.42 0.42 0.41 0.41 0.41 0.41 0.41 0.40 0.39 0.38 0.36 0.35 0.35 0.33 0.32 0.31 0.32 0.33
0.60 0.57 0.54 0.50 0.48 0.48 0.49 0.51 0.52 0.52 0.50 0.47 0.43 0.43 0.43 0.42 0.41 0.40 0.40 0.41 0.41 0.39 0.37 0.35 0.33 0.33 0.30 0.30 0.27 0.28 0.29 0.30
0.55 0.54 0.55 0.50 0.48 0.50 0.50 0.52 0.52 0.51 0.50 0.47 0.43 0.43 0.42 0.42 0.40 0.39 0.39 0.41 0.38 0.36 0.33 0.31 0.29 0.29 0.26 0.25 0.26 0.26 0.30 0.34
0.54 0.55 0.54 0.53 0.50 0.50 0.50 0.51 0.50 0.50 0.49 0.46 0.42 0.43 0.42 0.40 0.38 0.37 0.38 0.36 0.33 0.31 0.28 0.25 0.25 0.24 0.22 0.22 0.23 0.24 0.30 0.35
0.53 0.54 0.54 0.52 0.51 0.51 0.51 0.51 0.50 0.49 0.48 0.45 0.43 0.43 0.42 0.40 0.39 0.39 0.38 0.35 0.31 0.30 0.28 0.26 0.24 0.22 0.22 0.22 0.21 0.24 0.29 0.31
0.54 0.54 0.55 0.53 0.53 0.52 0.52 0.50 0.49 0.50 0.48 0.45 0.44 0.43 0.43 0.42 0.40 0.39 0.38 0.34 0.31 0.29 0.26 0.26 0.25 0.24 0.22 0.20 0.20 0.23 0.29 0.28
0.52 0.52 0.52 0.52 0.50 0.47 0.47 0.44 0.46 0.48 0.48 0.46 0.46 0.46 0.45 0.42 0.40 0.38 0.37 0.32 0.31 0.29 0.26 0.24 0.23 0.25 0.20 0.18 0.19 0.21 0.28 0.27
0.54 0.51 0.49 0.50 0.50 0.49 0.48 0.46 0.48 0.48 0.46 0.47 0.47 0.46 0.45 0.42 0.39 0.37 0.35 0.32 0.30 0.28 0.27 0.25 0.25 0.28 0.22 0.22 0.16 0.17 0.22 0.21
0.50 0.48 0.48 0.49 0.49 0.49 0.49 0.48 0.48 0.46 0.44 0.46 0.47 0.46 0.45 0.42 0.40 0.38 0.36 0.33 0.30 0.29 0.27 0.26 0.23 0.27 0.28 0.23 0.18 0.15 0.19 0.25
0.50 0.49 0.49 0.50 0.50 0.48 0.46 0.44 0.42 0.43 0.45 0.46 0.47 0.47 0.44 0.42 0.40 0.37 0.36 0.34 0.32 0.30 0.29 0.28 0.27 0.24 0.26 0.27 0.27 0.25 0.18 0.16
0.53 0.51 0.51 0.52 0.51 0.49 0.47 0.45 0.45 0.46 0.46 0.45 0.46 0.45 0.44 0.42 0.39 0.37 0.35 0.34 0.33 0.30 0.28 0.27 0.28 0.26 0.24 0.23 0.23 0.23 0.23 0.20
0.58 0.55 0.53 0.53 0.51 0.50 0.46 0.44 0.44 0.44 0.45 0.44 0.44 0.45 0.43 0.42 0.40 0.37 0.36 0.35 0.31 0.29 0.29 0.28 0.27 0.25 0.23 0.24 0.22 0.20 0.19 0.19
0.61 0.59 0.55 0.53 0.49 0.46 0.46 0.45 0.46 0.47 0.47 0.45 0.43 0.42 0.41 0.40 0.39 0.37 0.35 0.33 0.30 0.28 0.27 0.25 0.24 0.22 0.21 0.19 0.20 0.20 0.21 0.20
0.63 0.61 0.56 0.52 0.48 0.47 0.48 0.48 0.50 0.50 0.49 0.47 0.44 0.43 0.42 0.42 0.40 0.37 0.34 0.30 0.27 0.26 0.26 0.24 0.22 0.19 0.16 0.17 0.18 0.19 0.20 0.20
Wind_Speed
5 5 5 5 4 4 4 5 5 6 6 7 7 8 9 10 10 11 11 13 13 14 15 16 17 18 18 20 21 21 21 21
6 6 5 4 3 3 4 5 5 6 7 8 9 9 10 10 11 12 13 13 14 15 16 17 18 19 20 21 21 21 22 23
7 6 5 5 4 4 4 5 5 6 7 8 9 10 11 11 12 14 14 16 16 17 18 19 20 20 21 23 23 23 24 24
8 7 6 5 4 4 4 4 6 7 8 10 11 12 13 13 15 16 17 18 19 20 21 22 22 23 24 25 25 26 26 27
9 8 7 6 6 5 5 6 7 9 10 12 13 14 15 16 18 19 20 21 22 23 24 25 26 27 27 28 29 29 29 29
11 10 9 8 7 7 7 8 10 11 13 14 15 17 18 18 20 21 22 23 25 26 27 28 29 30 30 30 31 31 32 32
13 12 11 10 10 9 9 10 12 13 14 16 17 18 19 20 21 23 24 26 27 29 30 31 32 32 32 33 34 34 35 35
15 14 13 12 12 12 12 12 13 15 16 17 19 20 21 22 23 25 27 29 30 31 32 32 33 33 33 35 36 37 37 37
16 16 15 15 14 14 14 14 15 16 18 19 20 21 22 23 25 28 29 31 32 32 33 34 34 35 36 37 37 38 38 37
18 18 17 16 16 16 16 16 17 18 19 21 22 23 24 26 28 30 31 32 33 34 34 34 35 36 37 37 38 38 37 36
19 19 19 18 17 17 17 17 19 20 21 22 23 24 26 28 30 32 32 33 33 33 33 35 36 38 38 38 38 37 35 34
21 20 20 20 19 19 19 20 21 22 23 24 25 26 28 29 31 32 33 33 33 34 36 37 38 39 39 38 37 36 34 34
23 22 22 21 21 21 21 22 23 24 25 25 26 27 29 31 32 33 33 33 34 35 37 38 38 39 39 39 36 36 33 35
24 23 23 23 23 23 23 23 24 25 26 26 27 28 30 31 32 33 33 34 35 36 36 37 37 38 38 38 37 35 35 38
24 24 23 24 24 24 24 24 25 26 27 28 28 29 30 31 32 32 34 35 35 36 37 37 37 37 37 36 37 37 41 33
24 24 24 24 24 25 25 26 26 26 27 28 29 30 30 31 32 34 35 35 35 35 36 36 36 36 36 35 36 37 36 37
24 24 24 25 25 25 25 25 26 26 27 28 29 30 30 31 33 34 35 35 35 35 35 35 34 35 36 36 36 35 35 36
24 24 25 25 25 25 25 26 26 26 27 28 29 30 31 32 33 34 34 34 34 35 34 33 34 35 36 35 35 35 36 36
25 25 25 26 25 26 26 26 26 27 27 28 29 30 32 33 33 34 34 34 34 33 33 33 34 35 36 36 35 35 35 36
26 26 26 27 26 26 27 26 26 27 27 28 29 31 32 32 33 33 33 33 33 33 32 33 34 35 35 34 33 33 32 32
Wind_Direction
277 293 301 308 308 319 336 338 340 344 343 338 337 336 333 331 331 329 324 324 322 320 320 317 315 315 311 309 307 305 302 301
274 282 289 299 298 314 331 333 334 338 338 336 333 331 330 329 329 327 326 324 322 322 320 318 318 316 313 311 310 307 304 300
272 273 279 280 282 297 318 333 337 337 336 337 334 333 330 327 327 324 323 321 320 319 318 317 315 313 312 310 308 306 304 302
262 266 273 267 276 287 304 321 330 331 330 330 326 325 323 321 320 318 317 317 316 315 314 312 311 310 309 308 307 306 303 299
255 258 261 263 270 278 291 306 316 321 324 323 320 318 317 316 314 313 312 313 312 311 310 309 308 307 305 304 304 302 301 298
253 255 258 262 265 275 282 297 307 312 316 317 315 313 313 313 312 311 311 311 310 309 308 307 306 305 304 303 302 300 299 296
251 254 257 260 265 272 281 292 301 307 312 314 314 313 312 312 311 311 310 309 309 308 306 305 304 304 303 302 301 299 297 295
250 252 255 258 263 269 278 288 297 304 309 312 313 312 311 311 311 310 310 309 308 307 306 305 304 303 301 301 300 298 296 294
248 251 253 258 264 269 277 285 294 301 305 309 311 311 311 311 311 311 310 309 309 308 307 306 303 301 301 300 299 298 296 294
248 250 254 258 263 268 275 284 292 298 303 306 308 309 310 310 311 311 311 310 310 309 308 306 304 303 302 301 300 298 296 294
248 250 253 257 262 267 274 282 290 295 300 303 306 308 309 310 311 312 311 311 311 310 308 307 306 305 304 301 301 298 296 294
249 251 253 256 260 267 274 281 288 293 298 301 304 306 308 309 310 311 311 311 310 309 309 308 307 306 303 302 301 298 295 295
248 250 254 255 260 266 273 280 286 292 296 299 302 305 308 309 310 311 311 311 311 310 308 309 308 308 304 303 300 299 294 296
248 250 252 256 261 268 274 279 285 290 294 298 301 305 307 309 310 310 310 311 311 310 310 309 308 310 307 303 301 299 295 297
247 249 252 258 262 268 273 279 285 289 293 296 300 304 307 309 310 310 310 311 311 310 311 311 309 310 310 308 302 299 300 290
246 250 254 258 263 267 271 278 283 287 291 296 300 304 306 308 309 310 311 310 310 311 311 310 310 310 309 309 305 302 299 295
246 252 257 260 264 267 272 278 282 286 290 295 299 302 306 308 310 311 311 311 311 311 312 312 311 310 310 308 306 303 300 296
249 254 258 260 263 267 273 277 281 285 290 294 297 301 305 308 309 311 311 311 311 311 312 312 312 311 311 309 306 303 301 298
251 256 259 262 264 268 274 277 280 285 289 292 296 300 304 306 309 310 311 312 312 311 311 312 312 312 311 309 307 305 303 301
253 258 261 263 264 269 274 277 281 285 288 292 297 300 303 306 308 310 311 312 311 311 310 311 312 313 312 310 309 307 305 304